EW7659 Weather Reports


Display with metric or nautical units.
time (UTC)temp
F
wind
direction
speed
MPH
gust
MPH
rain 1hr
in
rain 24hr
in
rain mn
in
humidity
%
barometer
mb
20260503203548 84 196 0.0 7.0 0.00 0.00 0.00 30 1006.6
20260503203049 84 189 1.0 10.0 0.00 0.00 0.00 31 1006.8
20260503202548 84 19 1.0 10.0 0.00 0.00 0.00 35 1006.8
20260503202048 84 186 1.0 7.0 0.00 0.00 0.00 31 1007.0
20260503201546 83 261 1.0 13.0 0.00 0.00 0.00 31 1007.2
20260503201046 83 175 0.0 13.0 0.00 0.00 0.00 35 1007.2
20260503200547 83 167 0.0 7.0 0.00 0.00 0.00 33 1007.3
20260503200313 83 159 0.0 4.0 0.00 0.00 0.00 33 1007.4
20260503195546 83 208 1.0 10.0 0.00 0.00 0.00 32 1007.6
20260503195532 83 166 1.0 10.0 0.00 0.00 0.00 32 1007.6
20260503194542 83 215 0.0 7.0 0.00 0.00 0.00 36 1007.7
20260503194042 83 190 1.0 10.0 0.00 0.00 0.00 34 1007.7
20260503193803 82 225 1.0 10.0 0.00 0.00 0.00 34 1007.8
20260503193306 82 170 0.0 10.0 0.00 0.00 0.00 38 1007.9
20260503192542 82 140 1.0 10.0 0.00 0.00 0.00 36 1008.0
20260503192042 81 144 1.0 9.0 0.00 0.00 0.00 40 1008.0
20260503192029 82 157 0.0 9.0 0.00 0.00 0.00 40 1008.0
20260503191302 81 217 0.0 7.0 0.00 0.00 0.00 40 1008.2
20260503190542 81 150 0.0 8.0 0.00 0.00 0.00 39 1008.3
20260503190300 81 169 0.0 8.0 0.00 0.00 0.00 40 1008.3
20260503185537 81 159 0.0 8.0 0.00 0.00 0.00 41 1008.4
20260503185037 80 247 0.0 8.0 0.00 0.00 0.00 39 1008.3
20260503184538 80 182 0.0 9.0 0.00 0.00 0.00 42 1008.4
20260503184038 80 252 1.0 12.0 0.00 0.00 0.00 42 1008.4
20260503183538 80 164 1.0 12.0 0.00 0.00 0.00 41 1008.5
20260503183303 80 169 1.0 10.0 0.00 0.00 0.00 40 1008.6
20260503182538 79 182 1.0 10.0 0.00 0.00 0.00 39 1008.6
20260503182038 79 184 0.0 3.0 0.00 0.00 0.00 45 1008.9
20260503181758 79 226 0.0 3.0 0.00 0.00 0.00 42 1008.9
20260503181033 79 202 0.0 7.0 0.00 0.00 0.00 42 1009.0
20260503180534 79 236 0.0 7.0 0.00 0.00 0.00 47 1009.1
20260503180033 78 138 0.0 6.0 0.00 0.00 0.00 44 1009.3
20260503175532 78 206 0.0 6.0 0.00 0.00 0.00 44 1009.4
20260503175032 78 173 0.0 6.0 0.00 0.00 0.00 43 1009.5
20260503174533 78 158 0.0 6.0 0.00 0.00 0.00 46 1009.5
20260503174031 78 188 0.0 2.0 0.00 0.00 0.00 47 1009.6
20260503173532 78 206 0.0 2.0 0.00 0.00 0.00 44 1009.7
20260503173031 77 206 0.0 2.0 0.00 0.00 0.00 44 1009.8
20260503172757 77 167 0.0 0.0 0.00 0.00 0.00 48 1010.0
20260503172030 77 190 0.0 2.0 0.00 0.00 0.00 45 1010.0
20260503171530 76 192 1.0 6.0 0.00 0.00 0.00 46 1010.1
20260503171029 76 174 0.0 6.0 0.00 0.00 0.00 48 1010.1
20260503170530 75 166 0.0 1.0 0.00 0.00 0.00 49 1010.2
20260503150951 66 189 1.0 6.0 0.00 0.00 0.00 55 1011.0
20260503150451 65 194 1.0 7.0 0.00 0.00 0.00 57 1011.0
20260503130915 52 165 2.0 8.0 0.00 0.00 0.00 72 1011.8
20260503130633 51 168 1.0 6.0 0.00 0.00 0.00 73 1011.7
20260503130143 51 167 0.0 6.0 0.00 0.00 0.00 73 1011.8
20260503110339 49 173 1.0 7.0 0.00 0.00 0.00 72 1011.6
20260503090253 50 0 0.0 3.0 0.00 0.00 0.00 71 1012.6
20260503081241 51 0 0.0 1.0 0.00 0.00 0.00 69 1013.1
20260503080742 51 0 0.0 1.0 0.00 0.00 0.00 69 1013.2
20260503080242 51 0 0.0 0.0 0.00 0.00 0.00 69 1013.2
20260503072739 51 355 0.0 0.0 0.00 0.01 0.00 69 1013.5
20260503072237 51 355 0.0 0.0 0.00 0.01 0.00 71 1013.5
20260503071737 51 355 0.0 0.0 0.00 0.01 0.00 72 1013.6
20260503071238 50 355 0.0 0.0 0.00 0.01 0.00 73 1013.5
20260503070733 50 355 0.0 0.0 0.00 0.01 0.00 75 1013.6
20260503070458 50 355 0.0 0.0 0.00 0.01 0.00 75 1013.7
20260503060230 47 355 0.0 0.0 0.00 0.01 0.00 80 1014.2
20260503054731 48 355 0.0 0.0 0.00 0.01 0.00 78 1014.2
20260503054230 48 355 0.0 0.0 0.00 0.01 0.00 77 1014.1
20260503053730 48 355 0.0 0.0 0.00 0.01 0.00 77 1014.1
20260503053231 48 355 0.0 0.0 0.00 0.01 0.00 76 1014.0
20260503052730 49 355 0.0 0.0 0.00 0.01 0.00 76 1014.1
20260503052231 49 355 0.0 0.0 0.00 0.01 0.00 76 1014.1
20260503051730 49 355 0.0 0.0 0.00 0.01 0.00 75 1014.0
20260503051230 49 355 0.0 0.0 0.00 0.01 0.00 74 1014.1
20260503050730 49 355 0.0 0.0 0.00 0.01 0.00 74 1014.0
20260503050454 49 355 0.0 0.0 0.00 0.01 0.00 73 1014.0
20260503045731 49 355 0.0 0.0 0.00 0.01 0.01 73 1013.9
20260503045231 49 355 0.0 0.0 0.00 0.01 0.01 72 1013.9
20260503044727 50 355 0.0 0.0 0.00 0.01 0.01 72 1014.0
20260503044221 49 355 0.0 0.0 0.00 0.01 0.01 72 1014.0
20260503043916 50 355 0.0 0.0 0.00 0.01 0.01 72 1013.9
20260503043911 50 355 0.0 0.0 0.00 0.01 0.01 72 1013.9
20260503043907 49 355 0.0 0.0 0.00 0.01 0.01 72 1014.0
20260503043641 50 355 0.0 0.0 0.00 0.01 0.01 73 1014.0
20260503043418 50 355 0.0 0.0 0.00 0.01 0.01 72 1013.9
20260503041713 50 355 0.0 0.0 0.00 0.01 0.01 72 1013.9
20260503041214 50 355 0.0 0.0 0.00 0.01 0.01 71 1014.0
20260503040711 51 355 0.0 0.0 0.00 0.01 0.01 70 1013.9
20260503040213 51 355 0.0 0.0 0.00 0.01 0.01 69 1013.9
20260503035709 51 355 0.0 0.0 0.00 0.01 0.01 69 1013.9
20260503035207 51 355 0.0 0.0 0.00 0.01 0.01 69 1013.9
20260503035150 51 355 0.0 0.0 0.00 0.01 0.01 68 1014.0
20260503034205 52 355 0.0 0.0 0.00 0.01 0.01 68 1014.1
20260503033704 52 355 0.0 0.0 0.00 0.01 0.01 68 1014.1
20260503033206 52 355 0.0 0.0 0.00 0.01 0.01 69 1014.1
20260503032704 52 355 0.0 0.0 0.00 0.01 0.01 69 1014.1
20260503032203 52 355 0.0 0.0 0.00 0.01 0.01 70 1014.1
20260503031703 52 355 0.0 0.0 0.00 0.01 0.01 69 1014.1
20260503031431 53 355 0.0 0.0 0.00 0.01 0.01 68 1014.1
20260503030703 53 355 0.0 0.0 0.00 0.01 0.01 67 1014.0
20260503030203 53 355 0.0 0.0 0.00 0.01 0.01 66 1014.0
20260503025656 54 355 0.0 0.0 0.00 0.01 0.01 66 1014.0
20260503025150 54 355 0.0 0.0 0.00 0.01 0.01 66 1013.9
20260503024645 54 355 0.0 0.0 0.00 0.01 0.01 65 1013.9
20260503024359 54 355 0.0 0.0 0.00 0.01 0.01 64 1013.9
20260503023632 55 355 0.0 0.0 0.00 0.01 0.01 63 1014.0
20260503023131 55 355 0.0 0.0 0.00 0.01 0.01 63 1013.9
20260503022631 55 355 0.0 0.0 0.00 0.01 0.01 60 1013.9
20260503022131 55 355 0.0 0.0 0.00 0.01 0.01 59 1013.9
20260503021630 56 355 0.0 0.0 0.00 0.01 0.01 58 1013.8
20260503021130 56 355 0.0 0.0 0.00 0.01 0.01 57 1013.8
20260503020630 57 355 0.0 0.0 0.00 0.01 0.01 55 1013.8
20260503020131 57 355 0.0 0.0 0.00 0.01 0.01 54 1013.8
20260503015631 58 355 0.0 0.0 0.00 0.01 0.01 53 1013.8
20260503015130 58 355 0.0 0.0 0.00 0.01 0.01 53 1013.7
20260503014631 58 355 0.0 0.0 0.00 0.01 0.01 52 1013.6
20260503014130 59 355 0.0 0.0 0.00 0.01 0.01 51 1013.6
20260503013630 60 355 0.0 0.0 0.00 0.01 0.01 50 1013.5
20260503013130 60 355 0.0 0.0 0.00 0.01 0.01 48 1013.5
20260503012630 61 355 0.0 0.0 0.00 0.01 0.01 47 1013.5
20260503012131 61 355 0.0 0.0 0.00 0.01 0.01 46 1013.5
20260503011631 62 355 0.0 0.0 0.00 0.01 0.01 45 1013.5
20260503011136 63 355 0.0 0.0 0.00 0.01 0.01 43 1013.5
20260503010634 63 355 0.0 0.0 0.00 0.01 0.01 42 1013.5
20260503010133 64 355 0.0 0.0 0.00 0.01 0.01 41 1013.5
20260503005630 65 355 0.0 0.0 0.00 0.01 0.01 40 1013.5
20260503005130 65 355 0.0 0.0 0.00 0.01 0.01 37 1013.6
20260503004630 65 355 0.0 0.0 0.00 0.01 0.01 36 1013.6
20260503004130 66 355 0.0 1.0 0.00 0.01 0.01 36 1013.6
20260503003628 66 355 0.0 1.0 0.00 0.01 0.01 35 1013.6
20260503003129 66 355 0.0 0.0 0.00 0.01 0.01 33 1013.6
20260503002628 67 355 0.0 0.0 0.00 0.01 0.01 35 1013.5
20260503002129 67 355 0.0 3.0 0.00 0.01 0.01 33 1013.6
20260503001628 67 355 0.0 3.0 0.00 0.01 0.01 32 1013.6
20260503001128 68 351 0.0 0.0 0.00 0.01 0.01 33 1013.6
20260503000628 68 355 0.0 0.0 0.00 0.01 0.01 32 1013.6
20260503000129 68 0 0.0 0.0 0.00 0.01 0.01 33 1013.6
20260502235628 68 0 0.0 0.0 0.00 0.01 0.01 32 1013.7
20260502235356 68 0 0.0 0.0 0.00 0.01 0.01 31 1013.7
20260502234629 67 0 0.0 1.0 0.00 0.01 0.01 32 1013.7
20260502234128 68 0 0.0 1.0 0.00 0.01 0.01 31 1013.7
20260502233628 68 0 0.0 0.0 0.00 0.01 0.01 31 1013.7
20260502233128 68 0 0.0 0.0 0.00 0.01 0.01 32 1013.8
20260502232851 68 0 0.0 4.0 0.00 0.01 0.01 31 1013.8
20260502232128 68 0 0.0 4.0 0.00 0.01 0.01 31 1013.8
20260502231626 69 0 0.0 2.0 0.00 0.01 0.01 33 1013.8
20260502231126 69 0 0.0 1.0 0.00 0.01 0.01 35 1013.8
20260502230624 68 0 0.0 1.0 0.00 0.01 0.01 34 1013.8
20260502230125 68 0 0.0 0.0 0.00 0.01 0.01 33 1013.9
20260502225623 68 0 0.0 0.0 0.00 0.01 0.01 32 1013.9
20260502225120 68 0 0.0 1.0 0.00 0.01 0.01 33 1013.9
20260502224621 68 0 0.0 1.0 0.00 0.01 0.01 33 1013.9
20260502224341 69 0 0.0 2.0 0.00 0.01 0.01 33 1013.9
20260502223620 68 350 0.0 4.0 0.00 0.01 0.01 31 1013.9
20260502223120 68 350 0.0 4.0 0.00 0.01 0.01 32 1014.0
20260502222620 68 0 0.0 4.0 0.00 0.01 0.01 32 1013.9
20260502222120 68 0 0.0 1.0 0.00 0.01 0.01 37 1014.0
20260502221620 68 0 0.0 1.0 0.00 0.01 0.01 34 1014.0
20260502221120 68 0 0.0 4.0 0.00 0.01 0.01 35 1014.1
20260502220620 69 0 0.0 5.0 0.00 0.01 0.01 33 1014.0
20260502220120 69 355 0.0 5.0 0.00 0.01 0.01 33 1014.0
20260502215840 69 0 0.0 0.0 0.00 0.01 0.01 34 1014.1
20260502215121 69 0 0.0 0.0 0.00 0.01 0.01 34 1014.1
20260502214614 68 0 0.0 3.0 0.00 0.01 0.01 33 1014.2
20260502214115 68 0 0.0 4.0 0.00 0.01 0.01 34 1014.3
20260502213615 68 355 0.0 4.0 0.00 0.01 0.01 35 1014.3
20260502213114 68 338 0.0 3.0 0.00 0.01 0.01 33 1014.3
20260502212614 68 11 0.0 3.0 0.00 0.01 0.01 32 1014.4
20260502212114 68 11 0.0 1.0 0.00 0.01 0.01 33 1014.5
20260502211614 69 11 0.0 0.0 0.00 0.01 0.01 33 1014.5
20260502211114 69 12 0.0 4.0 0.00 0.01 0.01 35 1014.6
20260502210615 69 12 0.0 4.0 0.00 0.01 0.01 35 1014.6
20260502210110 69 5 0.0 2.0 0.00 0.01 0.01 35 1014.7
20260502205611 68 5 0.0 2.0 0.00 0.01 0.01 33 1014.7
20260502205110 68 9 0.0 1.0 0.00 0.01 0.01 38 1014.7
20260502204610 68 9 0.0 4.0 0.00 0.01 0.01 35 1014.7
20260502204557 68 9 0.0 4.0 0.00 0.01 0.01 36 1014.8